McAlester, OK

4:29 PM CDT on April 23, 2018 (GMT -0500)
McAlester Regional

Weather History for KMLC - January, 2014

Change the Weather History Date:

Saturday, January 11, 2014

  Actual Average Record
Temperature  
Mean Temperature 44 °F -  
Max Temperature 60 °F 46 °F 75 °F (2017)
Min Temperature 28 °F 25 °F -9 °F (1962)
Degree Days  
Heating Degree Days 21    
Moisture  
Dew Point 29 °F    
Average Humidity 67    
Maximum Humidity 92    
Minimum Humidity 28    
Precipitation  
Precipitation 0.01 in - - ()
Sea Level Pressure  
Sea Level Pressure 29.98 in    
Wind  
Wind Speed 4 mph (West)    
Max Wind Speed 15 mph    
Max Gust Speed 23 mph    
Visibility 10 miles    
Events      
Averages and records for this station are not official NWS values.
T = Trace of Precipitation, MM = Missing Value Source: NWS Daily Summary

Daily Weather History Graph

Daily Weather History Graph

Search for Another Location

Airport or City:

Astronomy

Jan. 11, 2014 Rise Set
Actual Time 7:31 AM CST 5:31 PM CST
Civil Twilight 7:03 AM CST 5:59 PM CST
Nautical Twilight 6:32 AM CST 6:30 PM CST
Astronomical Twilight 6:01 AM CST 7:00 PM CST
Moon 2:14 PM CST (1/11) 3:38 AM CST (1/11)
Length of Visible Light 10h 55m
Length of Day
10h 00m
Waxing Gibbous, 83% of the Moon is Illuminated
Jan 11
Waxing Gibbous
Jan 15
Full
Jan 23
Last Quarter
Jan 30
New
Feb 6
First Quarter

Hourly Weather History & Observations

Time (CST) Temp. Windchill Dew Point Humidity Pressure Visibility Wind Dir Wind Speed Gust Speed Precip Events Conditions
12:53 AM 37.0 °F 33.3 °F 32.0 °F 82% 29.81 in 10.0 mi West 4.6 mph - N/A   Partly Cloudy
1:53 AM 39.9 °F - 30.9 °F 70% 29.82 in 10.0 mi Calm Calm - N/A   Clear
2:53 AM 33.1 °F - 30.0 °F 89% 29.86 in 10.0 mi Calm Calm - N/A   Clear
3:53 AM 30.9 °F 27.5 °F 28.9 °F 92% 29.89 in 10.0 mi WSW 3.5 mph - N/A   Partly Cloudy
4:53 AM 30.9 °F 26.2 °F 28.9 °F 92% 29.90 in 10.0 mi WSW 4.6 mph - N/A   Clear
5:53 AM 30.0 °F 25.2 °F 28.0 °F 92% 29.92 in 10.0 mi SW 4.6 mph - N/A   Mostly Cloudy
6:53 AM 30.0 °F 25.2 °F 28.0 °F 92% 29.95 in 10.0 mi WSW 4.6 mph - N/A   Partly Cloudy
7:53 AM 28.9 °F 23.9 °F 27.0 °F 92% 29.97 in 10.0 mi SW 4.6 mph - N/A   Partly Cloudy
8:53 AM 35.1 °F 32.2 °F 30.9 °F 85% 30.01 in 10.0 mi SW 3.5 mph - N/A   Partly Cloudy
9:53 AM 44.1 °F 39.0 °F 30.9 °F 60% 30.03 in 10.0 mi West 9.2 mph - N/A   Partly Cloudy
10:53 AM 50.0 °F - 30.0 °F 46% 30.02 in 10.0 mi WNW 6.9 mph - N/A   Partly Cloudy
11:53 AM 55.0 °F - 28.9 °F 37% 30.00 in 10.0 mi West 11.5 mph - N/A   Partly Cloudy
12:53 PM 57.9 °F - 28.9 °F 33% 29.98 in 10.0 mi West 11.5 mph 19.6 mph N/A   Partly Cloudy
1:53 PM 59.0 °F - 28.0 °F 31% 29.98 in 10.0 mi West 12.7 mph 23.0 mph N/A   Clear
2:53 PM 60.1 °F - 27.0 °F 28% 29.99 in 10.0 mi West 15.0 mph 23.0 mph 0.01 in   Scattered Clouds
3:53 PM 59.0 °F - 26.1 °F 28% 30.01 in 10.0 mi WNW 13.8 mph - N/A   Clear
4:53 PM 57.9 °F - 27.0 °F 31% 30.01 in 10.0 mi WNW 5.8 mph - N/A   Clear
5:53 PM 46.9 °F - 30.0 °F 52% 30.02 in 10.0 mi Calm Calm - N/A   Partly Cloudy
6:53 PM 39.0 °F - 28.9 °F 67% 30.04 in 10.0 mi Calm Calm - N/A   Partly Cloudy
7:53 PM 36.0 °F - 28.9 °F 76% 30.04 in 10.0 mi Calm Calm - N/A   Partly Cloudy
8:53 PM 33.1 °F - 28.0 °F 82% 30.06 in 10.0 mi Calm Calm - N/A   Partly Cloudy
9:53 PM 33.1 °F - 28.0 °F 82% 30.05 in 10.0 mi Calm Calm - N/A   Clear
10:53 PM 30.9 °F - 27.0 °F 85% 30.04 in 10.0 mi Calm Calm - N/A   Partly Cloudy
11:53 PM 30.0 °F - 27.0 °F 88% 30.02 in 10.0 mi Calm Calm - N/A   Clear